Shannon, Ireland

11:55 PM IST on May 25, 2017 (GMT +0100)
Shannon

Weather History for EINN - August, 2014

Change the Weather History Date:

Friday, August 15, 2014

  Actual Average Record
Temperature  
Mean Temperature 56 °F -  
Max Temperature 65 °F 65 °F 75 °F (1997)
Min Temperature 48 °F 52 °F 46 °F (2010)
Degree Days  
Heating Degree Days 8    
Growing Degree Days 6 (Base 50)    
Moisture  
Dew Point 47 °F    
Average Humidity 67    
Maximum Humidity 94    
Minimum Humidity 42    
Precipitation  
Precipitation 0.00 in 0.11 in - ()
Sea Level Pressure  
Sea Level Pressure 30.17 in    
Wind  
Wind Speed 8 mph ()    
Max Wind Speed 16 mph    
Max Gust Speed -    
Visibility 8.0 miles    
Events      
Averages and records for this station are not official NWS values.
T = Trace of Precipitation, MM = Missing Value Source: Averaged Metar Reports

Daily Weather History Graph

Daily Weather History Graph

Search for Another Location

Airport or City:

Trip Planner

Search our weather history database for the weather conditions in past years. The results will help you decide how hot, cold, wet, or windy it might be!

Date:

Astronomy

Aug. 15, 2014 Rise Set
Actual Time 6:17 AM IST 9:01 PM IST
Civil Twilight 5:38 AM IST 9:40 PM IST
Nautical Twilight 4:47 AM IST 10:30 PM IST
Astronomical Twilight 3:44 AM IST 11:32 PM IST
Moon 11:02 PM IST (8/15) 12:35 PM IST (8/15)
Length of Visible Light 16h 02m
Length of Day
14h 44m
Waning Gibbous, 71% of the Moon is Illuminated
Aug 15
Waning Gibbous
Aug 17
Last Quarter
Aug 25
New
Sep 2
First Quarter
Sep 9
Full

Hourly Weather History & Observations

Time (IST) Temp. Dew Point Humidity Pressure Visibility Wind Dir Wind Speed Gust Speed Precip Events Conditions
12:00 AM 55 °F 47 °F 66% 30.08 in 12 mi WNW 6.7 mph - -   Scattered Clouds
12:00 AM 55.4 °F 46.4 °F 72% 30.06 in 6.2 mi WNW 6.9 mph - N/A   Mostly Cloudy
12:30 AM 53.6 °F 48.2 °F 82% 30.06 in 6.2 mi NW 6.9 mph - N/A   Mostly Cloudy
1:00 AM 55 °F 48 °F 70% 30.09 in 12 mi NW 6.7 mph - -   Partly Cloudy
1:00 AM 55.4 °F 48.2 °F 77% 30.06 in 6.2 mi NW 6.9 mph - N/A   Mostly Cloudy
1:30 AM 55.4 °F 48.2 °F 77% 30.09 in 6.2 mi NW 8.1 mph - N/A   Mostly Cloudy
2:00 AM 54 °F 48 °F 74% 30.10 in 12 mi NW 6.7 mph - -   Scattered Clouds
2:00 AM 55.4 °F 48.2 °F 77% 30.09 in 6.2 mi NW 6.9 mph - N/A   Mostly Cloudy
2:30 AM 53.6 °F 48.2 °F 82% 30.09 in 6.2 mi NW 6.9 mph - N/A   Mostly Cloudy
3:00 AM 52 °F 48 °F 82% 30.10 in 12 mi NW 6.7 mph - -   Scattered Clouds
3:00 AM 51.8 °F 48.2 °F 88% 30.09 in 6.2 mi NW 6.9 mph - N/A   Scattered Clouds
3:30 AM 51.8 °F 48.2 °F 88% 30.09 in 6.2 mi NW 5.8 mph - N/A   Scattered Clouds
4:00 AM 51.8 °F 48.2 °F 88% 30.09 in 6.2 mi NW 5.8 mph - N/A   Partly Cloudy
4:30 AM 51.8 °F 48.2 °F 88% 30.09 in 6.2 mi NW 6.9 mph - N/A   Partly Cloudy
5:00 AM 51 °F 49 °F 88% 30.11 in 12 mi NW 4.5 mph - -   Scattered Clouds
5:00 AM 50.0 °F 48.2 °F 94% 30.09 in 6.2 mi NW 4.6 mph - N/A   Partly Cloudy
5:30 AM 50.0 °F 48.2 °F 94% 30.09 in 6.2 mi WNW 5.8 mph - N/A   Scattered Clouds
6:00 AM 49 °F 47 °F 92% 30.12 in 12 mi WNW 6.7 mph - -   Scattered Clouds
6:30 AM 48.2 °F 46.4 °F 93% 30.12 in 6.2 mi WNW 3.5 mph - N/A   Partly Cloudy
7:00 AM 49 °F 48 °F 93% 30.14 in 25 mi NW 4.5 mph - -   Scattered Clouds
7:00 AM 50.0 °F 48.2 °F 94% 30.12 in 6.2 mi NW 4.6 mph - N/A   Mostly Cloudy
7:30 AM 51.8 °F 48.2 °F 88% 30.12 in 6.2 mi North 3.5 mph - N/A   Mostly Cloudy
8:00 AM 54 °F 50 °F 80% 30.16 in 25 mi NNW 6.7 mph - -   Scattered Clouds
8:00 AM 53.6 °F 50.0 °F 88% 30.15 in 6.2 mi NNW 5.8 mph - N/A   Mostly Cloudy
8:30 AM 55.4 °F 50.0 °F 82% 30.15 in 6.2 mi North 5.8 mph - N/A   Mostly Cloudy
9:00 AM 58 °F 48 °F 62% 30.17 in 25 mi NNW 8.9 mph - -   Scattered Clouds
9:00 AM 57.2 °F 48.2 °F 72% 30.15 in 6.2 mi NNW 8.1 mph - N/A   Mostly Cloudy
9:30 AM 59.0 °F 46.4 °F 63% 30.15 in 6.2 mi NNW 9.2 mph - N/A   Mostly Cloudy
10:00 AM 58 °F 47 °F 58% 30.19 in 25 mi NW 11.2 mph - -   Scattered Clouds
10:00 AM 59.0 °F 48.2 °F 67% 30.18 in 6.2 mi NW 10.4 mph - N/A   Scattered Clouds
10:30 AM 60.8 °F 46.4 °F 59% 30.18 in 6.2 mi NW 11.5 mph - N/A   Scattered Clouds
11:00 AM 61 °F 45 °F 45% 30.19 in 12 mi NNW 11.2 mph - -   Partly Cloudy
11:00 AM 60.8 °F 44.6 °F 55% 30.18 in 6.2 mi NNW 10.4 mph - N/A   Scattered Clouds
11:30 AM 57.2 °F 48.2 °F 72% 30.18 in 6.2 mi North 10.4 mph - N/A   Scattered Clouds
12:00 PM 60 °F 44 °F 45% 30.21 in 19 mi NNW 6.7 mph - -   Mostly Cloudy
12:00 PM 60.8 °F 44.6 °F 55% 30.18 in 6.2 mi NNW 6.9 mph - N/A   Mostly Cloudy
12:30 PM 62.6 °F 46.4 °F 55% 30.18 in 6.2 mi NW 12.7 mph - N/A   Scattered Clouds
1:00 PM 62 °F 46 °F 44% 30.22 in 19 mi NW 11.2 mph - -   Mostly Cloudy
1:00 PM 62.6 °F 46.4 °F 55% 30.21 in 6.2 mi NW 11.5 mph - N/A   Mostly Cloudy
1:30 PM 62.6 °F 44.6 °F 52% 30.21 in 6.2 mi NW 10.4 mph - N/A   Mostly Cloudy
2:00 PM 62 °F 46 °F 44% 30.22 in 31 mi NW 8.9 mph - -   Mostly Cloudy
2:00 PM 62.6 °F 46.4 °F 55% 30.21 in 6.2 mi NW 9.2 mph - N/A   Mostly Cloudy
2:30 PM 62.6 °F 44.6 °F 52% 30.21 in 6.2 mi NW 11.5 mph - N/A   Mostly Cloudy
3:00 PM 63 °F 46 °F 43% 30.22 in 31 mi NW 11.2 mph - -   Mostly Cloudy
3:00 PM 62.6 °F 46.4 °F 55% 30.21 in 6.2 mi NW 10.4 mph - N/A   Mostly Cloudy
3:30 PM 62.6 °F 48.2 °F 59% 30.21 in 6.2 mi NW 11.5 mph - N/A   Mostly Cloudy
4:00 PM 64 °F 47 °F 43% 30.22 in 31 mi WNW 11.2 mph - -   Mostly Cloudy
4:00 PM 64.4 °F 46.4 °F 52% 30.21 in 6.2 mi WNW 10.4 mph - N/A   Mostly Cloudy
4:30 PM 62.6 °F 46.4 °F 55% 30.21 in 6.2 mi West 13.8 mph - N/A   Mostly Cloudy
5:00 PM 63 °F 46 °F 43% 30.23 in 31 mi NW 11.2 mph - -   Mostly Cloudy
5:00 PM 62.6 °F 46.4 °F 55% 30.21 in 6.2 mi NW 11.5 mph - N/A   Mostly Cloudy
5:30 PM 62.6 °F 46.4 °F 55% 30.21 in 6.2 mi WNW 11.5 mph - N/A   Mostly Cloudy
6:00 PM 64 °F 47 °F 42% 30.23 in 25 mi WNW 15.7 mph - -   Mostly Cloudy
6:00 PM 64.4 °F 46.4 °F 52% 30.21 in 6.2 mi WNW 15.0 mph - N/A   Mostly Cloudy
6:30 PM 62.6 °F 46.4 °F 55% 30.21 in 6.2 mi West 16.1 mph - N/A   Mostly Cloudy
7:00 PM 61 °F 47 °F 51% 30.24 in 25 mi WNW 15.7 mph - -   Scattered Clouds
7:00 PM 60.8 °F 46.4 °F 59% 30.24 in 6.2 mi WNW 15.0 mph - N/A   Mostly Cloudy
7:30 PM 60.8 °F 46.4 °F 59% 30.24 in 6.2 mi West 12.7 mph - N/A   Mostly Cloudy
8:00 PM 59 °F 47 °F 55% 30.25 in 25 mi West 13.4 mph - -   Mostly Cloudy
8:00 PM 59.0 °F 46.4 °F 63% 30.24 in 6.2 mi West 12.7 mph - N/A   Mostly Cloudy
8:30 PM 59.0 °F 46.4 °F 63% 30.24 in 6.2 mi West 12.7 mph - N/A   Mostly Cloudy
9:00 PM 59 °F 47 °F 56% 30.25 in 19 mi West 11.2 mph - -   Mostly Cloudy
9:00 PM 59.0 °F 48.2 °F 67% 30.24 in 6.2 mi West 10.4 mph - N/A   Mostly Cloudy
9:30 PM 59.0 °F 48.2 °F 67% 30.24 in 6.2 mi West 9.2 mph - N/A   Mostly Cloudy
10:00 PM 57 °F 49 °F 65% 30.26 in 19 mi West 8.9 mph - -   Scattered Clouds
10:00 PM 57.2 °F 48.2 °F 72% 30.24 in 6.2 mi West 8.1 mph - N/A   Scattered Clouds
10:30 PM 57.2 °F 50.0 °F 77% 30.24 in 6.2 mi WSW 6.9 mph - N/A   Partly Cloudy
11:00 PM 56 °F 51 °F 76% 30.26 in 19 mi West 4.5 mph - -   Scattered Clouds
11:00 PM 57.2 °F 50.0 °F 77% 30.24 in 6.2 mi West 4.6 mph - N/A   Partly Cloudy
11:30 PM 57.2 °F 51.8 °F 82% 30.24 in 6.2 mi WSW 6.9 mph - N/A   Scattered Clouds